Theta_e
330 328 317 313 301 300 295 301 307 308 307 311 315 313 315 316 315 308 329 338 341 342 343 343 345 346 343 343 344 347 348 346 344 342 342 343 341 340 337 337 338 337 336 336 336 335 335 334 333
326 326 315 307 298 291 295 302 305 307 310 314 315 313 312 314 323 324 330 339 341 342 342 342 343 345 343 343 344 347 347 346 344 342 340 340 340 339 337 337 338 337 335 335 336 336 334 333 332
327 325 308 303 297 289 295 302 306 309 312 312 311 314 315 317 323 325 334 339 341 340 341 341 342 345 344 343 344 345 345 345 343 342 339 338 338 338 337 339 337 336 334 334 334 335 334 333 332
315 316 308 298 294 294 296 304 309 309 310 312 312 311 318 325 327 330 337 339 338 340 340 340 342 344 344 344 344 345 346 345 343 340 338 336 336 337 337 335 337 335 333 333 333 333 333 333 332
315 312 302 299 296 295 301 307 311 309 310 309 310 309 314 326 331 332 336 337 337 337 339 339 341 342 343 343 342 344 345 344 343 342 340 338 335 334 334 335 335 335 335 332 334 333 333 334 332
309 308 300 301 295 298 301 305 308 308 308 309 307 313 315 328 329 329 335 335 338 336 338 338 335 338 340 342 342 342 342 344 343 342 342 339 337 336 333 333 333 334 333 331 332 332 331 334 334
306 303 299 304 299 298 302 305 303 304 305 305 308 310 317 324 329 330 330 337 337 337 336 336 336 336 334 337 337 338 338 341 341 342 342 340 339 338 337 335 334 332 333 332 333 332 330 330 332
308 305 301 300 302 299 303 305 306 304 305 311 310 308 311 321 331 331 330 334 334 335 335 334 334 334 334 333 331 333 334 334 335 335 335 333 332 332 333 331 334 334 333 332 332 331 330 330 329
311 301 299 304 305 301 305 303 306 307 307 308 311 314 318 328 331 329 328 331 332 333 333 334 333 332 332 332 330 328 329 330 330 330 329 327 326 326 326 328 331 335 335 333 332 331 330 329 328
304 299 302 307 309 303 306 305 305 303 304 304 314 321 327 329 327 327 325 326 329 329 330 331 332 331 331 334 329 329 330 328 327 327 327 328 325 325 326 323 326 330 331 333 333 332 331 326 321
303 299 304 306 311 310 307 305 307 305 300 306 310 320 324 325 325 324 324 327 328 330 330 331 331 331 330 330 327 328 328 326 326 326 325 325 327 323 323 322 323 322 320 322 328 328 326 323 322
298 303 303 307 311 310 307 309 306 305 307 311 312 323 323 324 325 325 324 325 327 328 330 331 330 332 330 329 327 325 326 327 326 326 327 325 323 322 322 321 320 319 321 319 320 320 322 322 322
299 301 304 303 307 307 310 307 306 306 310 312 314 319 322 323 324 325 326 325 327 328 329 329 331 330 331 328 328 326 326 326 326 326 327 327 323 322 322 321 321 320 320 319 319 318 319 319 320
301 301 301 302 304 305 306 305 306 307 310 310 316 316 319 321 322 321 324 325 326 329 329 330 330 330 330 329 328 328 328 327 326 326 325 325 324 322 321 320 320 319 319 319 318 317 317 317 317
301 298 298 298 301 301 305 301 304 308 310 309 310 314 317 319 321 322 324 326 327 329 329 330 331 332 330 328 328 327 328 328 327 326 326 324 325 322 321 320 319 319 319 319 318 317 317 316 318
297 295 289 296 300 302 301 290 300 304 307 308 308 308 313 317 319 323 324 324 325 327 327 330 332 331 331 330 329 329 328 326 326 326 326 326 326 324 322 321 320 321 320 320 318 318 318 317 317
293 286 289 293 299 300 300 294 300 301 300 304 306 308 309 310 315 318 323 324 325 326 327 328 331 329 329 329 330 330 330 329 327 325 327 327 326 326 324 324 323 323 322 321 320 319 318 317 317
288 289 291 290 295 298 297 296 300 302 300 299 298 301 303 308 312 317 320 323 326 327 327 328 329 330 329 329 328 329 329 329 329 328 328 328 328 326 326 324 323 323 322 321 320 319 319 318 320
292 289 288 292 297 294 293 293 296 298 298 298 298 299 300 301 304 314 320 321 322 323 326 327 327 329 328 327 325 326 325 327 328 328 328 327 326 326 325 324 322 322 322 322 322 323 322 321 322
293 289 288 292 296 294 292 292 295 297 297 297 299 298 299 301 303 304 313 318 319 321 323 326 327 328 329 329 328 327 327 327 329 329 327 327 327 325 325 324 322 322 323 322 322 323 321 321 321
291 289 289 289 291 292 290 288 290 295 297 299 299 300 300 301 303 304 303 307 318 320 321 323 326 328 329 330 330 329 327 326 325 327 327 327 327 326 325 324 323 322 323 324 324 324 322 319 319
288 294 294 293 288 282 288 278 287 291 292 293 296 299 302 302 303 304 305 303 304 314 319 321 323 325 327 329 327 326 326 325 327 327 328 328 327 326 326 325 324 324 324 323 323 324 323 321 318
291 296 293 291 288 286 284 281 283 288 288 290 292 296 299 303 301 302 303 305 306 306 306 311 317 322 325 326 327 325 325 326 328 325 325 326 326 326 326 325 324 324 325 324 323 323 322 322 320
296 294 293 291 288 276 284 282 281 286 288 291 292 295 298 298 299 300 300 302 302 303 307 309 311 313 318 323 325 325 325 325 323 321 322 324 326 326 326 326 325 325 326 326 325 324 322 321 320
295 289 278 277 275 275 283 282 285 289 292 292 293 294 295 296 298 299 297 299 300 300 302 304 307 308 310 311 314 322 324 324 323 322 322 321 323 324 325 325 324 324 325 327 325 323 323 321 320
291 289 280 273 276 277 282 278 283 290 292 293 294 294 295 295 298 298 299 298 299 300 301 302 303 305 308 309 309 311 319 322 323 322 320 322 323 324 326 325 326 326 326 324 324 323 322 321 319
290 287 291 283 275 276 279 282 287 291 291 292 291 292 294 296 297 298 299 299 299 299 300 302 303 303 304 306 308 309 313 318 319 319 320 320 321 321 322 324 323 323 323 322 323 321 319 316 312
292 294 284 285 273 270 277 277 280 285 288 289 290 291 293 294 296 297 298 299 301 302 303 304 304 304 305 305 306 307 311 314 317 316 317 317 320 320 319 320 320 319 316 318 317 313 310 307 306
288 287 288 288 283 276 274 277 286 287 289 290 290 291 292 293 294 296 297 298 301 301 301 303 304 305 307 310 310 310 310 312 314 315 315 315 315 316 318 317 312 310 310 308 308 304 302 302 300
291 288 289 282 279 282 281 280 289 289 289 292 292 292 294 294 295 294 296 298 298 299 299 300 302 303 305 309 310 311 312 312 312 313 313 312 310 308 309 307 306 304 304 302 300 299 298 297 295
Wind_Speed
7 4 1 4 5 5 4 2 5 6 4 3 4 8 8 3 3 3 5 15 18 13 11 12 14 15 14 13 12 11 14 15 15 14 14 14 13 13 14 12 11 12 10 12 12 11 11 11 10
6 1 3 2 4 3 3 3 8 5 5 7 6 4 3 2 3 8 9 17 17 14 11 10 12 13 14 13 12 11 12 14 15 14 14 13 12 12 12 11 9 10 10 9 10 10 10 9 8
4 3 3 3 3 3 3 3 7 5 6 5 3 4 5 5 4 7 13 18 17 13 10 10 12 13 13 12 11 11 12 13 13 13 12 13 11 11 9 9 8 8 9 7 7 8 7 7 6
3 4 5 3 2 1 3 8 8 6 3 3 5 7 4 5 13 8 18 18 15 14 13 12 13 14 13 11 9 11 13 13 13 13 12 11 11 10 9 6 7 7 6 7 6 4 5 4 4
4 3 0 1 0 2 5 5 8 6 6 3 4 4 4 2 9 14 18 15 15 13 13 12 12 12 12 11 9 9 11 12 12 12 12 11 10 10 8 8 5 5 6 6 5 4 2 2 2
5 3 3 0 3 3 3 3 5 6 5 4 3 7 4 6 10 8 14 13 14 13 12 10 10 11 10 9 8 7 8 13 13 13 13 12 11 10 8 7 7 5 3 4 5 3 1 0 3
3 4 3 3 5 3 5 4 3 4 7 1 4 5 3 5 7 7 10 13 13 13 12 8 7 8 9 9 8 7 6 11 10 13 13 12 12 11 9 6 5 6 5 4 4 3 2 1 1
2 4 5 6 4 2 5 5 5 3 1 2 3 5 5 6 10 8 8 10 8 10 11 9 7 6 6 6 9 8 6 7 8 5 7 7 10 8 8 7 6 6 6 5 5 4 5 5 5
3 3 3 5 8 4 6 3 2 1 6 2 3 5 6 12 11 8 8 7 6 5 9 10 8 7 6 6 6 7 7 8 7 4 6 6 4 6 7 7 8 8 8 8 7 7 7 6 7
4 1 4 6 7 3 6 5 6 3 4 2 4 6 11 13 11 12 11 11 11 9 7 9 9 9 8 7 6 5 5 4 4 5 5 4 5 5 6 7 9 10 9 9 9 9 9 7 4
3 5 3 3 5 6 2 2 5 6 3 6 10 12 11 9 9 9 8 14 14 11 6 8 11 10 10 7 5 4 3 3 4 6 6 5 4 4 4 3 3 4 6 3 5 5 4 5 4
1 7 4 3 4 4 4 6 1 6 7 4 11 19 14 13 14 13 10 10 11 11 11 8 9 8 10 5 6 7 6 5 5 6 7 5 3 4 4 3 5 4 4 5 5 3 5 6 6
3 3 5 5 1 1 3 5 3 7 7 4 10 12 15 13 13 9 8 7 9 13 12 9 8 7 6 6 7 7 7 7 7 7 8 7 5 5 4 4 4 4 4 4 5 5 5 5 6
1 3 5 4 4 2 2 4 4 5 4 5 10 13 12 14 15 8 9 10 10 11 12 11 9 7 6 5 7 7 6 7 7 7 7 9 6 5 5 4 5 5 5 5 5 5 5 5 4
0 4 5 3 3 3 2 4 10 9 10 2 8 10 12 13 11 16 14 15 14 11 11 15 14 13 9 7 6 4 4 5 5 5 6 7 8 7 6 5 5 5 5 6 5 5 4 4 4
1 3 2 5 8 6 8 8 10 7 7 10 8 9 9 13 14 16 13 14 14 14 15 15 14 15 14 11 7 5 5 4 4 5 5 7 7 7 6 6 6 5 5 4 4 4 4 4 4
2 3 6 7 9 5 6 6 8 3 3 9 9 9 10 10 10 10 15 15 14 14 14 14 16 15 15 12 9 9 9 7 6 5 6 8 8 8 6 6 5 6 5 5 4 4 4 4 4
8 5 5 5 4 5 5 8 8 9 4 8 7 8 8 8 12 11 14 15 15 14 13 14 12 15 15 10 9 9 9 11 8 9 10 11 10 10 9 6 5 4 4 5 4 5 4 4 4
2 2 5 5 4 2 5 5 11 7 8 10 9 9 9 8 7 9 12 15 15 14 15 17 15 16 13 10 10 10 12 11 9 9 13 11 9 11 10 8 6 5 6 8 7 5 6 4 3
9 5 5 7 2 1 5 9 11 10 8 10 11 9 10 8 8 8 8 7 12 16 17 16 17 15 15 11 11 9 10 10 9 8 8 12 12 11 11 11 8 9 7 7 8 7 3 3 4
2 4 3 6 0 3 3 8 7 9 7 13 11 9 7 12 12 10 8 9 9 12 15 15 16 18 16 16 8 7 4 4 6 8 9 11 13 13 13 12 10 8 7 8 9 8 9 5 4
3 1 5 4 4 4 3 8 6 7 11 5 11 11 16 14 10 7 8 8 8 10 8 10 12 14 15 16 11 14 12 12 11 10 9 9 11 13 13 13 12 10 7 9 8 6 6 6 6
4 4 3 3 2 3 2 5 9 5 7 10 8 11 14 16 9 9 8 9 8 7 8 8 7 9 12 15 16 12 14 10 9 7 9 10 9 12 13 14 13 11 9 10 10 7 9 7 5
4 5 5 4 3 4 7 7 7 8 9 7 3 8 9 7 7 8 5 3 3 1 1 3 6 9 9 12 17 18 18 15 9 8 8 9 9 9 12 13 13 11 11 11 11 10 9 8 7
5 6 2 2 1 8 5 8 11 7 10 8 9 10 6 3 3 2 2 3 5 6 5 5 5 7 7 7 6 10 15 16 16 13 10 9 6 7 12 13 12 10 12 13 9 9 10 9 8
9 10 6 8 5 4 1 9 8 6 6 6 5 4 2 3 3 5 6 6 7 8 7 5 6 7 7 7 7 7 8 9 10 9 7 8 9 9 10 12 12 13 13 12 11 8 8 9 8
3 9 7 3 2 3 5 8 8 7 9 8 8 6 7 7 6 6 6 5 7 6 6 5 6 7 7 7 7 8 8 9 9 10 7 7 7 6 10 12 11 12 12 11 11 7 8 8 6
6 7 4 3 4 5 6 5 7 8 4 4 6 3 4 5 7 6 6 6 3 2 2 4 5 7 7 7 6 6 7 7 7 6 7 7 9 9 9 10 11 10 7 9 9 6 5 7 4
3 3 2 1 5 5 2 6 7 8 7 8 5 1 2 3 4 5 5 5 4 4 4 4 4 5 6 5 4 5 5 6 6 6 6 6 6 8 9 10 8 8 8 8 7 7 7 7 6
3 5 7 4 4 4 6 10 3 4 5 7 7 8 10 9 7 5 4 4 4 6 5 5 5 4 5 4 4 5 4 4 5 5 6 6 7 5 7 7 7 7 8 7 7 8 7 8 8
Wind_Direction
318 323 91 43 49 75 274 18 116 102 50 110 92 84 115 79 63 163 109 125 129 135 139 139 143 139 140 138 131 117 129 123 114 108 109 105 102 105 102 98 92 95 87 86 84 81 79 74 73
299 279 18 66 92 41 296 146 99 91 131 91 65 82 68 107 95 112 109 135 136 138 142 142 141 139 142 140 135 128 118 115 116 115 116 115 113 113 114 113 109 93 94 95 91 87 82 78 71
207 196 79 129 136 119 164 126 132 117 110 132 97 63 108 126 108 142 139 135 132 137 138 141 142 144 146 142 138 136 130 126 127 124 124 122 121 118 113 119 116 112 101 90 100 96 92 87 78
325 15 0 95 155 209 91 141 136 116 67 54 100 81 48 222 150 154 143 135 138 144 143 144 149 149 150 152 146 151 147 145 141 137 132 131 125 122 120 113 128 124 119 108 100 93 109 103 86
25 74 343 26 232 135 70 141 134 129 158 187 99 153 91 35 138 130 144 139 136 135 142 149 152 153 152 156 155 154 164 156 152 148 144 141 137 137 135 134 123 142 139 134 119 102 82 153 137
1 87 39 74 137 125 86 93 137 140 148 146 89 111 177 145 131 153 142 139 135 135 141 148 154 154 155 159 163 171 177 172 164 159 154 155 153 153 156 150 152 145 89 147 147 143 117 10 198
70 55 262 312 167 153 170 123 82 134 149 173 130 92 166 143 164 154 131 135 136 142 142 147 155 159 162 164 174 190 178 168 175 172 169 170 163 162 156 164 173 174 174 177 178 189 222 266 273
64 84 308 319 181 136 173 128 160 115 96 162 94 149 181 204 159 153 117 136 131 142 144 154 157 158 165 171 177 187 203 150 138 162 187 164 146 151 150 172 190 186 192 201 207 219 234 249 257
18 39 291 316 1 152 163 113 19 144 110 71 55 133 176 149 143 147 136 123 125 143 157 158 162 169 170 176 188 185 180 157 149 143 158 166 162 168 179 185 202 202 197 207 215 223 234 244 257
89 103 247 31 356 177 177 135 166 110 113 116 60 47 122 146 153 171 171 152 160 176 195 154 169 178 173 180 170 179 177 176 176 178 186 190 190 193 190 195 210 205 206 213 219 226 229 240 243
228 202 311 357 25 15 162 166 188 133 230 207 176 155 152 158 170 179 182 174 173 175 183 184 175 182 176 183 170 177 178 181 196 197 195 205 210 201 190 189 192 198 212 218 228 236 229 234 240
275 271 262 336 13 23 347 316 221 184 204 243 181 165 163 170 182 192 196 177 173 184 182 196 193 171 185 163 175 180 183 191 196 204 201 197 213 198 197 182 196 200 206 214 221 226 229 238 246
226 281 326 330 267 207 327 305 267 290 263 119 141 162 176 178 188 196 196 185 170 187 194 195 179 190 189 174 178 185 191 193 200 204 207 192 200 204 202 206 194 207 202 209 217 220 219 226 233
296 352 309 319 299 324 218 256 41 286 273 174 148 174 181 185 190 186 188 197 188 184 198 193 194 200 193 201 187 189 193 194 201 202 202 198 195 198 202 209 213 208 198 207 210 214 222 236 237
161 345 338 276 232 247 143 292 230 233 266 249 208 187 189 200 188 200 196 200 200 205 187 192 197 206 201 200 204 198 193 192 194 209 203 200 199 196 198 206 215 215 211 214 216 228 224 230 235
140 89 294 261 206 242 139 256 249 256 241 240 220 217 200 201 203 204 199 197 196 189 193 186 191 196 204 210 206 207 206 203 205 201 204 201 202 203 197 203 213 209 210 205 205 212 228 236 237
285 209 211 291 208 172 163 247 262 293 230 256 250 224 222 220 216 198 197 201 198 196 188 187 187 190 195 202 211 220 224 225 223 208 213 218 207 204 205 210 212 203 202 204 202 215 196 220 241
194 205 231 224 312 154 184 249 276 299 305 268 271 259 245 238 231 204 194 196 197 198 194 190 182 188 190 192 201 214 223 225 217 217 217 214 222 209 209 216 214 216 211 212 201 204 216 206 223
323 354 311 269 319 161 248 245 273 277 285 277 260 257 262 255 242 227 213 195 192 192 194 198 189 186 180 189 194 206 217 221 223 217 217 205 202 207 205 212 207 211 217 210 200 197 220 236 186
260 267 254 292 178 204 272 263 260 265 250 243 250 244 243 260 269 234 224 227 195 196 197 199 201 188 191 192 198 201 206 225 226 222 204 205 207 195 200 202 202 211 224 216 209 206 207 214 176
220 221 222 234 344 263 280 274 267 268 268 254 247 240 240 223 239 255 225 212 210 212 204 200 197 196 197 200 190 204 200 223 206 214 216 211 203 198 196 198 200 198 212 223 216 204 201 214 197
251 292 233 269 355 236 49 278 276 298 289 245 255 239 242 243 237 233 247 249 220 229 213 207 196 198 199 195 196 203 209 214 221 217 219 213 200 199 197 197 197 201 210 226 215 192 202 195 213
205 75 45 192 164 20 297 322 286 275 299 287 253 246 240 241 235 236 236 242 240 231 220 228 236 212 197 194 202 205 214 222 220 211 201 207 205 199 195 195 195 200 208 223 216 194 201 199 201
149 97 42 44 84 283 189 195 207 224 215 245 281 263 265 273 262 265 277 295 283 11 269 266 240 225 208 199 203 207 213 215 212 205 203 209 210 208 201 196 198 199 210 212 210 197 198 196 203
144 113 41 7 8 236 220 205 253 286 274 219 256 268 265 268 90 38 328 290 284 283 265 244 245 261 254 239 219 221 219 216 215 216 214 200 197 203 209 196 201 203 211 223 199 192 204 199 201
180 166 166 197 201 271 212 236 256 230 258 231 264 321 334 160 227 264 278 277 276 274 270 266 251 251 265 276 259 230 228 227 225 210 201 206 207 208 198 197 201 205 203 203 200 194 197 193 199
191 209 209 43 51 74 244 292 302 272 286 311 12 20 353 324 291 291 300 292 291 273 266 258 269 273 273 257 247 248 230 211 212 212 204 199 193 190 194 195 196 198 196 192 192 191 182 189 188
158 156 154 186 201 238 256 252 238 300 287 61 57 8 330 344 348 330 318 320 319 319 288 292 269 261 261 260 251 256 247 226 222 206 209 197 201 194 191 195 199 197 178 179 177 171 169 168 179
206 220 203 212 175 201 266 259 236 217 159 129 200 186 27 329 323 315 319 328 319 308 292 277 273 280 289 287 270 249 243 231 226 218 215 206 193 190 192 191 174 172 171 171 166 166 165 178 177
293 251 211 180 235 243 261 258 327 126 181 35 15 356 342 335 297 295 298 305 315 301 302 281 282 283 281 289 290 271 245 215 212 211 198 179 188 179 170 161 161 163 172 169 167 169 176 179 184